星链-32195 (STARLINK-32195)

导读 | 星芒AI

STARLINK-32195 是 SpaceX Starlink 卫星互联网项目中的一颗低轨卫星,属于第三代星链卫星(v1.5 或 v2 架构)。该卫星于2023年发射,运行在约550公里高度的近地轨道,旨在为全球用户提供高速、低延迟的互联网服务。它采用先进的推进系统和激光通信技术,提高网络稳定性和数据传输效率。作为星链星座的一部分,STARLINK-32195 有助于扩大卫星互联网覆盖范围,特别是在偏远和网络基础设施薄弱的地区。

基本信息
目录编号:
60440
目录名称:
STARLINK-32195
国际标识:
2024-144R
轨道中心:
EARTH
卫星名称:
星链-32195 (STARLINK-32195)
卫星全名:
星链-32195 (STARLINK-32195)
卫星状态:
在轨 (已飞行495 天)
发射日期:
2024-08-12 UTC
国别 :
美国 (US)
星等 :
--
轨道信息
数据来源 国际轨道数据
星历时间: 2025-12-20T06:55:07+0800
8小时前
查看轨道信息
半长轴: 6853.36km
偏心率: 0.0001087
轨道倾角: 53.159°
近地点辐角 101.318°
升交点赤经 227.334°
平近点角 258.794°
近地点: 474.478km
远地点: 475.968km
周期: 94.106分钟
每日圈数: 15.301974
详细信息
卫星平台:
Starlink v2.0 mini
运营商:
太空探索技术公司
运营商所在国:
美国
制造商(研发单位):
太空探索技术公司
制造商所在国:
美国
使用方式:
暂无
卫星简介
星链(Starlink)计划是由太空探索技术公司(SpaceX)提出的一个巨型低轨卫星互联网星座项目,计划在2019年至2024年间在太空搭建由约1.2万颗卫星组成的“星链”网络,其中1584颗将部署在地球上空550千米处的近地轨道,并从2020年开始工作。该卫星仍在工作。
2D轨道图
3D轨道图
轨道高度分析图
轨道倾角分析图
轨道综合分析图
查看轨道综合分析图